Flag for Norway Weather past 2 weeks in Bodø, Norway

Now
50 °F

Sunny.


Feels Like: 48 °F
Forecast: 44 / 50 °F
Wind: 6 mph from North

Location: Bodo Vi

Current Time: May 25, 2015 at 10:13:19 PM

Latest Report: May 25, 2015 at 9:50 PM


Visibility: 10 mi

Pressure: 29.80 "Hg

Humidity: 58%

Dew point: 36 °F

Location of BodøLocation

Historic Weather in Bodø — Graph

°F

Bodø temperature yesterday

Maximum temperature yesterday: 48 °F (at 12:20 PM)
Minimum temperature yesterday: 41 °F (at 4:50 AM)
Average temperature yesterday: 45 °F

Past Weeks' High & Low Weather Summary

 TemperatureHumidityPressure
High52 °F (May 18, 1:20 PM)100% (May 10, 11:50 PM)29.98 "Hg (May 10, 11:50 PM)
Low36 °F (May 16, 3:50 AM)37% (May 18, 12:50 PM)29.50 "Hg (May 12, 5:20 AM)
Average45 °F71%29.73 "Hg
* Reported May 10 8:20 PM — May 25 8:50 PM, Bodø, Weather by CustomWeather, © 2015

Note: Actual official high and low records may vary slightly from our data, if they occured in-between our weather recording intervals... More about our weather records

Advertising

Bodø weather history for previous 24 hours

 ConditionsComfort  
Time TempWeatherWind HumidityBarometerVisibility
8:50 PM
Mon, May 25
52 °FPassing clouds.8 mph54%29.80 "HgN/A
8:20 PM52 °FPassing clouds.8 mph50%29.80 "HgN/A
7:50 PM52 °FPassing clouds.8 mph47%29.80 "HgN/A
7:20 PM52 °FPassing clouds.9 mph50%29.80 "HgN/A
6:50 PM52 °FPassing clouds.10 mph50%29.80 "HgN/A
6:20 PM52 °FPassing clouds.10 mph54%29.80 "HgN/A
5:50 PM52 °FPassing clouds.12 mph54%29.80 "HgN/A
5:20 PM52 °FPassing clouds.10 mph50%29.80 "HgN/A
4:50 PM52 °FPassing clouds.10 mph50%29.80 "HgN/A
4:20 PM52 °FPassing clouds.10 mph54%29.80 "HgN/A
3:50 PM52 °FPassing clouds.14 mph54%29.80 "HgN/A
3:20 PM52 °FPassing clouds.13 mph54%29.80 "HgN/A
2:50 PM52 °FPassing clouds.13 mph54%29.80 "HgN/A
2:20 PM52 °FSunny.13 mph47%29.77 "Hg10 mi
1:50 PM52 °FSunny.12 mph54%29.77 "Hg10 mi
1:20 PM52 °FPassing clouds.9 mph50%29.77 "HgN/A
12:50 PM52 °FSunny.13 mph50%29.77 "Hg10 mi
12:20 PM52 °FPassing clouds.12 mph50%29.77 "HgN/A
11:50 AM52 °FPassing clouds.9 mph44%29.77 "HgN/A
11:20 AM50 °FPassing clouds.7 mph50%29.77 "HgN/A
10:50 AM50 °FPassing clouds.9 mph47%29.77 "HgN/A
10:20 AM50 °FPassing clouds.10 mph50%29.77 "HgN/A
9:50 AM48 °FPassing clouds.12 mph54%29.77 "HgN/A
9:20 AM48 °FPassing clouds.13 mph54%29.77 "HgN/A
8:50 AM46 °FSunny.13 mph62%29.77 "Hg10 mi
8:20 AM46 °FSunny.13 mph66%29.74 "Hg10 mi
7:50 AM45 °FSunny.14 mph66%29.74 "Hg10 mi
7:20 AM45 °FSunny.12 mph66%29.74 "Hg10 mi
6:50 AM43 °FSunny.13 mph71%29.74 "Hg10 mi
6:20 AM43 °FSunny.13 mph76%29.74 "Hg10 mi
5:50 AM43 °FSunny.12 mph71%29.74 "Hg10 mi
5:20 AM41 °FSunny.10 mph76%29.74 "Hg10 mi
4:50 AM39 °FSunny.6 mph81%29.74 "Hg10 mi
3:50 AM37 °FSunny.6 mph87%29.74 "Hg10 mi
2:50 AM39 °FClear.6 mph81%29.74 "Hg10 mi
1:50 AM37 °FPassing clouds.5 mph81%29.74 "HgN/A
12:50 AM41 °FPassing clouds.7 mph81%29.77 "HgN/A
12:20 AM41 °FPassing clouds.6 mph76%29.77 "HgN/A
11:50 PM
Sun, May 24
43 °FPassing clouds.6 mph76%29.77 "HgN/A
11:20 PM43 °FPassing clouds.6 mph76%29.77 "HgN/A
10:50 PM45 °FPassing clouds.7 mph71%29.77 "HgN/A
10:20 PM45 °FPassing clouds.7 mph71%29.77 "HgN/A
Weather by CustomWeather, © 2015

See weather overviewHow to use our weather pages